Location: Unspecified
(52.4292°N, 19.3359°E)
Time: 12:14:08
(UTC+02:00)

deb Explorer IX - Pass Details

Date: 26 May 2024
Orbit: 510 x 886 km, 38.7° (Epoch: 13 June)

Event Time Altitude Azimuth Distance (km) Brightness Sun altitude
Rises 22:31:42 0° 241° (WSW) 3,117 ? -11.1°
Reaches altitude 10° 22:35:07 10° 219° (SW) 2,107 ? -11.4°
Maximum altitude 22:37:55 15° 184° (S) 1,705 ? -11.6°
Enters shadow 22:38:39 15° 173° (S) 1,714 ? -11.7°
